Regional Weather Roundup
Issued by NWS

Home | Current Version | Previous Version | Text Only | Print | Product List | Glossary On
Versions: 1 2 3 4 5 6 7 8 9 10 11 12 13 14 15 16 17 18 19 20 21 22 23 24 25 26 27 28 29 30 31 32 33 34 35 36 37 38 39 40 41 42 43 44 45 46 47 48 49 50
000
ASUS44 KOUN 311400
RWROK

WEATHER ROUNDUP FOR OKLAHOMA
NATIONAL WEATHER SERVICE NORMAN OK
900 AM CDT THU JUL 31 2014

NOTE: "FAIR" INDICATES FEW OR NO CLOUDS BELOW 12,000 FEET WITH NO
      SIGNIFICANT WEATHER AND/OR OBSTRUCTIONS TO VISIBILITY.

OKZ001>007-009>012-014-015-017-311500-
NORTHWEST OKLAHOMA AND THE PANHANDLE

CITY           SKY/WX    TMP DP  RH WIND       PRES   REMARKS
GAGE           SUNNY     65  59  81 N8        30.17F
ENID/WOODRING  PTSUNNY   66  66 100 N12       30.12R
$$

OKZ016-021>023-033>039-044-045-311500-
SOUTHWEST OKLAHOMA

CITY           SKY/WX    TMP DP  RH WIND       PRES   REMARKS
LAWTON/REGL    CLOUDY    69  66  90 N12       30.07R FOG
LAWTON/FT SILL CLOUDY    68  67  98 N12       30.06S
FREDERICK      CLOUDY    69  67  93 N20       30.06R
CLINTON        CLOUDY    64  62  93 N14       30.15S
HOBART         CLOUDY    66  61  84 N17G24    30.11S
ALTUS AFB      CLOUDY    68  65  91 N15       30.10S
$$

OKZ018>020-024>031-311500-
CENTRAL OKLAHOMA

CITY           SKY/WX    TMP DP  RH WIND       PRES   REMARKS
OKLAHOMA CITY  DRIZZLE   68  65  90 N10       30.08S FOG
OKC/WILEY POST CLOUDY    68  66  93 N9        30.09S FOG
STILLWATER     CLOUDY    68  66  93 N9        30.10R FOG
GUTHRIE        CLOUDY    68  66  93 NE7       30.10R FOG
$$

OKZ008-013-054>072-311500-
NORTHEAST OKLAHOMA

CITY           SKY/WX    TMP DP  RH WIND       PRES   REMARKS
TULSA          LGT RAIN  68  68 100 E5        30.08R FOG
TULSA/JONES    LGT RAIN  68  67  96 E3        30.09R FOG
PONCA CITY     CLOUDY    68  65  90 N9        30.12R
BARTLESVILLE   CLOUDY    68  66  93 NE5       30.11R
MUSKOGEE       LGT RAIN  68  66  93 E7        30.09R FOG
$$

OKZ032-040>043-046>053-073>077-311500-
SOUTH CENTRAL/SOUTHEAST OKLAHOMA

CITY           SKY/WX    TMP DP  RH WIND       PRES   REMARKS
ARDMORE/DWNTWN CLOUDY    64  63  94 NE6       30.02S FOG
MCALESTER      CLOUDY    66  64  93 VRB5      30.06R
$$



USA.gov is the U.S. government's official web portal to all federal, state and local government web resources and services.